This is the latest recevied weather packets stored in our database for station/object AD7ZD. If no packets are shown the sender has not sent any weather packets the latest 10 day(s).
| Time | Temp. | Humidity | Pressure | Rain* | Wind** | Luminosity | Snow |
|---|---|---|---|---|---|---|---|
| 1777511108 | 20° C | 19% | 1013.5 hPa | 0 mm | - | 215 W/m² | - |
| 1777510803 | 20° C | 20% | 1013.3 hPa | 0 mm | - | 228 W/m² | - |
| 1777510501 | 20° C | 19% | 1013.5 hPa | 0 mm | - | 245 W/m² | - |
| 1777510196 | 20° C | 19% | 1013.4 hPa | 0 mm | - | 265 W/m² | - |
| 1777509893 | 20.56° C | 19% | 1013.6 hPa | 0 mm | - | 274 W/m² | - |
| 1777509588 | 20.56° C | 18% | 1013.4 hPa | 0 mm | - | 302 W/m² | - |
| 1777509286 | 20.56° C | 19% | 1013.5 hPa | 0 mm | - | 307 W/m² | - |
| 1777508983 | 20° C | 20% | 1013.4 hPa | 0 mm | - | 312 W/m² | - |
| 1777508680 | 20.56° C | 19% | 1013.4 hPa | 0 mm | - | 229 W/m² | - |
| 1777508377 | 20.56° C | 18% | 1013.4 hPa | 0 mm | - | 352 W/m² | - |
| 1777508074 | 20.56° C | 17% | 1013.5 hPa | 0 mm | - | 371 W/m² | - |
| 1777507771 | 20° C | 17% | 1013.5 hPa | 0 mm | - | 365 W/m² | - |
| 1777507468 | 20.56° C | 18% | 1013.6 hPa | 0 mm | - | 402 W/m² | - |
| 1777507165 | 20.56° C | 17% | 1013.7 hPa | 0 mm | - | 420 W/m² | - |
| 1777506862 | 20.56° C | 18% | 1013.6 hPa | 0 mm | - | 446 W/m² | - |
| 1777506559 | 21.11° C | 18% | 1013.7 hPa | 0 mm | - | 391 W/m² | - |
| 1777506255 | 20° C | 18% | 1013.5 hPa | 0 mm | - | 438 W/m² | - |
| 1777505952 | 20° C | 19% | 1013.7 hPa | 0 mm | - | 461 W/m² | - |
| 1777505647 | 20° C | 19% | 1013.8 hPa | 0 mm | - | 481 W/m² | - |
| 1777505345 | 20° C | 19% | 1013.8 hPa | 0 mm | - | 508 W/m² | - |
| 1777505041 | 20° C | 19% | 1013.9 hPa | 0 mm | - | 466 W/m² | - |
| 1777504738 | 19.44° C | 19% | 1013.8 hPa | 0 mm | - | 486 W/m² | - |
| 1777504435 | 20° C | 19% | 1013.7 hPa | 0 mm | - | 503 W/m² | - |
| 1777504130 | 20° C | 18% | 1013.8 hPa | 0 mm | - | 376 W/m² | - |
| 1777503826 | 20° C | 18% | 1014.1 hPa | 0 mm | - | 563 W/m² | - |
* Rain latest hour (hover to see other rain measurements)
** Current wind speed in m/s (hover to see current wind gust speed)